Starlink 33604

operational
NORAD ID: 63070 Int'l Des: 2025-035 Owner: SPXS Country: US Constellation: starlink
LEOCIRCULAR

About Starlink 33604

Description loading...

Live Position

Loading 3D Globe...

Upcoming Passes

Altitude History

Altitude vs Time

uPlot chart will show altitude changes over time

Two-Line Element Set

1 63070U 25035U 26101.96148622 .00018565 00000-0 68253-3 0 9991
2 63070 43.0053 319.5762 0002385 271.8059 88.2519 15.27575256 64802
Epoch: Apr 11, 2026 • Age: 7 hours

Current Status

Altitude 487.1 km
Velocity 7.63 km/s
Sub-Earth Point 40.18°N, 145.9°E
Launch Date Feb 21, 2025
Age 1.1 years
Type internet

Technical Details

Classification Payload
Mass 575.00 kg
Dry Mass 530.00 kg
Total Mass 575.00 kg
Length 0.30 m
Diameter 4.10 m
Span 29.00 m
Shape Box + pan
Manufacturer SPXS
Bus Type Starlink V2MO
Phase Status In Orbit
Owner/State SPXS/US

Large Constellations

Loading constellations...